Weather History for Shelbyville, IN

Change the Weather History Date:

Sunday, March 2, 2014

  Actual Average Record
Temperature  
Mean Temperature 24 °F 36 °F  
Max Temperature 30 °F 45 °F 64 °F (2012)
Min Temperature 18 °F 27 °F 12 °F (2009)
Degree Days  
Heating Degree Days 41 29  
Month to date heating degree days 65 58  
Since 1 July heating degree days 4563 4221  
Cooling Degree Days 0 0  
Month to date cooling degree days 0 0  
Year to date cooling degree days 0 0  
Moisture  
Dew Point 18 °F    
Average Humidity 78    
Maximum Humidity 88    
Minimum Humidity 67    
Precipitation  
Precipitation 0.19 in 0.08 in 0.80 in (2002)
Month to date precipitation 0.19 0.16  
Year to date precipitation 4.07 4.91  
Sea Level Pressure  
Sea Level Pressure 30.21 in    
Wind  
Wind Speed 12 mph (North)    
Max Wind Speed 17 mph    
Max Gust Speed 22 mph    
Visibility 4 miles    
Events Fog , Rain , Snow    
T = Trace of Precipitation, MM = Missing Value Source: NWS Daily Summary

Daily Weather History Graph

Daily Weather History Graph

Search for Another Location

Airport:

Trip Planner

Search our weather history database for the weather conditions in past years. The results will help you decide how hot, cold, wet, or windy it might be!

Date:

Astronomy

Mar. 02, 2014 Rise Set
Actual Time 7:14 AM EST 6:36 PM EST
Civil Twilight 6:47 AM EST 7:03 PM EST
Nautical Twilight 6:16 AM EST 7:34 PM EST
Astronomical Twilight 5:45 AM EST 8:05 PM EST
Moon 7:46 AM EST (3/2) 8:31 PM EST (3/2)
Length of Visible Light 12h 15m
Length of Day
11h 21m
Waxing Crescent, 3% of the Moon is Illuminated
Mar 2
Waxing Crescent
Mar 8
First Quarter
Mar 16
Full
Mar 23
Last Quarter
Mar 30
New

Hourly Weather History & Observations

Time (EST) Temp. Windchill Dew Point Humidity Pressure Visibility Wind Dir Wind Speed Gust Speed Precip Events Conditions
12:13 AM 30.0 °F 21.1 °F 24.1 °F 79% 30.17 in 6.0 mi NNE 10.4 mph - N/A   Haze
12:31 AM 30.0 °F 21.1 °F 23.0 °F 75% 30.17 in 6.0 mi North 10.4 mph - N/A   Haze
12:53 AM 30.0 °F 20.0 °F 23.0 °F 75% 30.19 in 6.0 mi NNE 12.7 mph - N/A   Haze
1:53 AM 28.9 °F 20.4 °F 23.0 °F 78% 30.20 in 5.0 mi North 9.2 mph - N/A   Haze
2:53 AM 28.0 °F 17.5 °F 23.0 °F 81% 30.21 in 3.0 mi North 12.7 mph - 0.00 in Snow Light Snow
3:18 AM 27.0 °F 15.6 °F 23.0 °F 85% 30.20 in 4.0 mi North 13.8 mph - 0.00 in   Overcast
3:32 AM 27.0 °F 15.2 °F 23.0 °F 85% 30.14 in 3.0 mi NNE 15.0 mph - 0.00 in Rain Light Freezing Rain
3:45 AM 27.0 °F 16.7 °F 23.0 °F 85% 30.16 in 3.0 mi NNE 11.5 mph - 0.00 in Snow Light Snow
3:53 AM 27.0 °F 16.7 °F 23.0 °F 85% 30.17 in 4.0 mi NNE 11.5 mph - 0.00 in Snow Light Snow
4:40 AM 27.0 °F 15.6 °F 23.0 °F 85% 30.16 in 4.0 mi North 13.8 mph - 0.01 in Rain Light Freezing Rain
4:48 AM 26.6 °F 15.2 °F 23.0 °F 86% 30.16 in 3.0 mi North 13.8 mph - 0.01 in Rain Light Freezing Rain
4:53 AM 27.0 °F 15.6 °F 23.0 °F 85% 30.18 in 3.0 mi North 13.8 mph - 0.01 in Rain Light Freezing Rain
5:02 AM 27.0 °F 16.1 °F 21.9 °F 81% 30.17 in 4.0 mi North 12.7 mph - 0.01 in Snow Light Snow
5:18 AM 27.0 °F 15.6 °F 23.0 °F 85% 30.15 in 2.5 mi NNE 13.8 mph - 0.01 in   Overcast
5:28 AM 27.0 °F 15.6 °F 21.9 °F 81% 30.16 in 3.0 mi North 13.8 mph - 0.01 in Snow Light Snow
5:44 AM 27.0 °F 15.6 °F 21.9 °F 81% 30.19 in 3.0 mi North 13.8 mph 20.7 mph 0.01 in Snow Light Snow
5:53 AM 27.0 °F 15.2 °F 21.9 °F 81% 30.21 in 2.5 mi North 15.0 mph - 0.02 in Snow Light Snow
6:08 AM 26.1 °F 14.0 °F 21.0 °F 81% 30.18 in 4.0 mi North 15.0 mph - 0.00 in Snow Light Snow
6:53 AM 25.0 °F 14.2 °F 21.0 °F 85% 30.20 in 3.0 mi North 11.5 mph - 0.01 in Snow Light Snow
7:11 AM 24.1 °F 11.5 °F 19.0 °F 81% 30.17 in 5.0 mi NNE 15.0 mph - 0.00 in Rain Light Freezing Rain
7:18 AM 25.0 °F 13.1 °F 19.9 °F 81% 30.16 in 4.0 mi NNE 13.8 mph - 0.00 in Snow Light Snow
7:36 AM 24.1 °F 12.0 °F 19.0 °F 81% 30.18 in 4.0 mi North 13.8 mph - 0.00 in Snow Light Snow
7:53 AM 24.1 °F 13.1 °F 19.0 °F 81% 30.22 in 4.0 mi North 11.5 mph - 0.01 in   Overcast
8:22 AM 23.0 °F 12.4 °F 18.0 °F 81% 30.20 in 3.0 mi North 10.4 mph - 0.03 in Snow Light Snow
8:33 AM 23.0 °F 11.7 °F 17.1 °F 78% 30.20 in 1.8 mi North 11.5 mph - 0.04 in Snow Light Snow
8:40 AM 23.0 °F 11.1 °F 18.0 °F 81% 30.20 in 1.0 mi NNE 12.7 mph - 0.05 in Snow Light Snow
8:53 AM 21.9 °F 9.8 °F 18.0 °F 85% 30.24 in 0.8 mi North 12.7 mph - 0.06 in Snow Light Snow
9:39 AM 21.0 °F 8.6 °F 16.0 °F 81% 30.20 in 0.5 mi North 12.7 mph - 0.02 in Snow Snow
9:53 AM 21.0 °F 9.3 °F 17.1 °F 85% 30.25 in 0.5 mi North 11.5 mph - 0.03 in Fog Light Freezing Fog
10:07 AM 21.0 °F 8.6 °F 16.0 °F 81% 30.22 in 1.0 mi North 12.7 mph - 0.01 in   Haze
10:19 AM 21.0 °F 9.3 °F 16.0 °F 81% 30.21 in 2.0 mi North 11.5 mph - 0.01 in   Haze
10:25 AM 21.0 °F 9.3 °F 16.0 °F 81% 30.20 in 3.0 mi North 11.5 mph - 0.01 in   Haze
10:53 AM 21.9 °F 10.4 °F 15.1 °F 75% 30.24 in 10.0 mi North 11.5 mph - 0.01 in   Overcast
11:53 AM 24.1 °F 13.1 °F 16.0 °F 71% 30.23 in 10.0 mi North 11.5 mph - N/A   Overcast
12:53 PM 24.1 °F 11.0 °F 17.1 °F 75% 30.24 in 6.0 mi North 16.1 mph - 0.00 in Snow Light Snow
1:18 PM 24.1 °F 11.0 °F 16.0 °F 71% 30.20 in 9.0 mi North 16.1 mph - 0.00 in Snow Light Snow
1:38 PM 24.1 °F 12.0 °F 16.0 °F 71% 30.20 in 9.0 mi North 13.8 mph - 0.00 in Snow Light Snow
1:53 PM 24.1 °F 11.5 °F 17.1 °F 75% 30.24 in 9.0 mi North 15.0 mph - 0.00 in Snow Light Snow
2:53 PM 24.1 °F 12.0 °F 16.0 °F 71% 30.22 in 9.0 mi North 13.8 mph - 0.01 in Snow Light Snow
3:18 PM 24.1 °F 11.5 °F 16.0 °F 71% 30.20 in 9.0 mi North 15.0 mph - 0.00 in Snow Light Snow
3:34 PM 24.1 °F 12.5 °F 15.1 °F 69% 30.20 in 9.0 mi North 12.7 mph - 0.00 in Snow Light Snow
3:53 PM 23.0 °F 9.6 °F 16.0 °F 74% 30.23 in 6.0 mi North 16.1 mph - 0.00 in Snow Light Snow
4:24 PM 23.0 °F 10.1 °F 15.1 °F 72% 30.20 in 2.0 mi North 15.0 mph - 0.00 in Snow Light Snow
4:31 PM 21.9 °F 9.2 °F 16.0 °F 78% 30.21 in 1.2 mi North 13.8 mph - 0.00 in Snow Light Snow
4:53 PM 21.9 °F 10.4 °F 16.0 °F 78% 30.25 in 0.8 mi North 11.5 mph - 0.01 in Snow Light Snow
5:13 PM 21.9 °F 8.7 °F 16.0 °F 78% 30.22 in 0.5 mi North 15.0 mph - 0.00 in Snow Snow
5:25 PM 21.0 °F 8.6 °F 16.0 °F 81% 30.23 in 1.0 mi North 12.7 mph - 0.01 in   Haze
5:53 PM 21.0 °F 8.6 °F 16.0 °F 81% 30.26 in 1.0 mi North 12.7 mph - 0.01 in   Haze
6:02 PM 21.0 °F 9.9 °F 16.0 °F 81% 30.22 in 0.8 mi North 10.4 mph - 0.01 in   Haze
6:16 PM 21.0 °F 11.4 °F 16.0 °F 81% 30.22 in 1.0 mi North 8.1 mph - 0.01 in   Haze
6:38 PM 19.9 °F 7.9 °F 15.1 °F 81% 30.22 in 2.0 mi NNE 11.5 mph - 0.01 in   Haze
6:41 PM 19.9 °F 7.9 °F 15.1 °F 81% 30.22 in 3.0 mi North 11.5 mph - 0.01 in   Haze
6:48 PM 19.4 °F 7.9 °F 15.8 °F 86% 30.22 in 5.0 mi North 10.4 mph - 0.01 in   Haze
6:53 PM 19.9 °F 8.6 °F 15.1 °F 81% 30.25 in 6.0 mi North 10.4 mph - 0.01 in   Haze
7:13 PM 19.9 °F 7.9 °F 15.1 °F 81% 30.22 in 3.0 mi NNE 11.5 mph - N/A   Haze
7:45 PM 19.9 °F 8.6 °F 14.0 °F 78% 30.23 in 5.0 mi NNE 10.4 mph - N/A   Haze
7:53 PM 19.9 °F 9.3 °F 14.0 °F 78% 30.27 in 5.0 mi NNE 9.2 mph - N/A   Haze
8:29 PM 19.9 °F 11.1 °F 14.0 °F 78% 30.25 in 9.0 mi NNE 6.9 mph - 0.00 in Snow Light Snow
8:53 PM 19.9 °F 11.1 °F 14.0 °F 78% 30.29 in 9.0 mi NNE 6.9 mph - 0.00 in Snow Light Snow
9:53 PM 19.0 °F 5.6 °F 12.0 °F 74% 30.29 in 8.0 mi North 13.8 mph - 0.00 in Snow Light Snow
10:53 PM 19.0 °F 6.1 °F 10.9 °F 71% 30.30 in 10.0 mi North 12.7 mph - 0.00 in   Overcast
11:53 PM 18.0 °F 3.6 °F 10.0 °F 71% 30.29 in 10.0 mi North 15.0 mph - 0.00 in   Overcast